Year,Month,Day,Hour,Minute,Value (Times are PST for temperature in C)
2017,08,11,00,00,18.00
2017,08,11,00,01,18.00
2017,08,11,00,02,18.00
2017,08,11,00,03,17.90
2017,08,11,00,04,17.90
2017,08,11,00,05,17.90
2017,08,11,00,06,17.90
2017,08,11,00,07,17.80
2017,08,11,00,08,17.80
2017,08,11,00,09,17.80
2017,08,11,00,10,17.80
2017,08,11,00,11,17.80
2017,08,11,00,12,17.70
2017,08,11,00,13,17.70
2017,08,11,00,14,17.70
2017,08,11,00,15,17.70
2017,08,11,00,16,17.70
2017,08,11,00,17,17.60
2017,08,11,00,18,17.60
2017,08,11,00,19,17.60
2017,08,11,00,20,17.60
2017,08,11,00,21,17.50
2017,08,11,00,22,17.50
2017,08,11,00,23,17.40
2017,08,11,00,24,17.40
2017,08,11,00,25,17.40
2017,08,11,00,26,17.40
2017,08,11,00,27,17.30
2017,08,11,00,28,17.30
2017,08,11,00,29,17.30
2017,08,11,00,30,17.30
2017,08,11,00,31,17.30
2017,08,11,00,32,17.30
2017,08,11,00,33,17.20
2017,08,11,00,34,17.20
2017,08,11,00,35,17.20
2017,08,11,00,36,17.20
2017,08,11,00,37,17.20
2017,08,11,00,38,17.10
2017,08,11,00,39,17.10
2017,08,11,00,40,17.10
2017,08,11,00,41,17.10
2017,08,11,00,42,17.00
2017,08,11,00,43,17.00
2017,08,11,00,44,16.90
2017,08,11,00,45,16.90
2017,08,11,00,46,16.90
2017,08,11,00,47,16.90
2017,08,11,00,48,16.90
2017,08,11,00,49,16.80
2017,08,11,00,50,16.80
2017,08,11,00,51,16.80
2017,08,11,00,52,16.80
2017,08,11,00,53,16.80
2017,08,11,00,54,16.80
2017,08,11,00,55,16.80
2017,08,11,00,56,16.80
2017,08,11,00,57,16.70
2017,08,11,00,58,16.70
2017,08,11,00,59,16.70
2017,08,11,01,00,16.70
2017,08,11,01,01,16.70
2017,08,11,01,02,16.70
2017,08,11,01,03,16.70
2017,08,11,01,04,16.70
2017,08,11,01,05,16.70
2017,08,11,01,06,16.60
2017,08,11,01,07,16.60
2017,08,11,01,08,16.60
2017,08,11,01,09,16.60
2017,08,11,01,10,16.60
2017,08,11,01,11,16.60
2017,08,11,01,12,16.50
2017,08,11,01,13,16.50
2017,08,11,01,14,16.50
2017,08,11,01,15,16.50
2017,08,11,01,16,16.50
2017,08,11,01,17,16.40
2017,08,11,01,18,16.40
2017,08,11,01,19,16.40
2017,08,11,01,20,16.40
2017,08,11,01,21,16.30
2017,08,11,01,22,16.30
2017,08,11,01,23,16.30
2017,08,11,01,24,16.30
2017,08,11,01,25,16.30
2017,08,11,01,26,16.20
2017,08,11,01,27,16.20
2017,08,11,01,28,16.20
2017,08,11,01,29,16.20
2017,08,11,01,30,16.20
2017,08,11,01,31,16.20
2017,08,11,01,32,16.20
2017,08,11,01,33,16.10
2017,08,11,01,34,16.10
2017,08,11,01,35,16.10
2017,08,11,01,36,16.10
2017,08,11,01,37,16.10
2017,08,11,01,38,16.10
2017,08,11,01,39,16.10
2017,08,11,01,40,16.00
2017,08,11,01,41,16.00
2017,08,11,01,42,16.00
2017,08,11,01,43,16.00
2017,08,11,01,44,15.90
2017,08,11,01,45,15.90
2017,08,11,01,46,15.90
2017,08,11,01,47,15.90
2017,08,11,01,48,15.90
2017,08,11,01,49,15.90
2017,08,11,01,50,15.90
2017,08,11,01,51,15.90
2017,08,11,01,52,15.90
2017,08,11,01,53,15.80
2017,08,11,01,54,15.80
2017,08,11,01,55,15.80
2017,08,11,01,56,15.80
2017,08,11,01,57,15.80
2017,08,11,01,58,15.80
2017,08,11,01,59,15.70
2017,08,11,02,00,15.70
2017,08,11,02,01,15.70
2017,08,11,02,02,15.70
2017,08,11,02,03,15.70
2017,08,11,02,04,15.70
2017,08,11,02,05,15.70
2017,08,11,02,06,15.70
2017,08,11,02,07,15.70
2017,08,11,02,08,15.80
2017,08,11,02,09,15.80
2017,08,11,02,10,15.80
2017,08,11,02,11,15.80
2017,08,11,02,12,15.80
2017,08,11,02,13,15.80
2017,08,11,02,14,15.80
2017,08,11,02,15,15.80
2017,08,11,02,16,15.80
2017,08,11,02,17,15.80
2017,08,11,02,18,15.80
2017,08,11,02,19,15.80
2017,08,11,02,20,15.80
2017,08,11,02,21,15.80
2017,08,11,02,22,15.80
2017,08,11,02,23,15.80
2017,08,11,02,24,15.70
2017,08,11,02,25,15.70
2017,08,11,02,26,15.70
2017,08,11,02,27,15.70
2017,08,11,02,28,15.70
2017,08,11,02,29,15.70
2017,08,11,02,30,15.70
2017,08,11,02,31,15.70
2017,08,11,02,32,15.70
2017,08,11,02,33,15.70
2017,08,11,02,34,15.70
2017,08,11,02,35,15.70
2017,08,11,02,36,15.70
2017,08,11,02,37,15.70
2017,08,11,02,38,15.70
2017,08,11,02,39,15.70
2017,08,11,02,40,15.70
2017,08,11,02,41,15.60
2017,08,11,02,42,15.60
2017,08,11,02,43,15.60
2017,08,11,02,44,15.60
2017,08,11,02,45,15.60
2017,08,11,02,46,15.60
2017,08,11,02,47,15.50
2017,08,11,02,48,15.50
2017,08,11,02,49,15.40
2017,08,11,02,50,15.40
2017,08,11,02,51,15.40
2017,08,11,02,52,15.40
2017,08,11,02,53,15.30
2017,08,11,02,54,15.30
2017,08,11,02,55,15.30
2017,08,11,02,56,15.30
2017,08,11,02,57,15.20
2017,08,11,02,58,15.20
2017,08,11,02,59,15.20
2017,08,11,03,00,15.10
2017,08,11,03,01,15.10
2017,08,11,03,02,15.10
2017,08,11,03,03,15.00
2017,08,11,03,04,15.00
2017,08,11,03,05,15.00
2017,08,11,03,06,14.90
2017,08,11,03,07,14.90
2017,08,11,03,08,14.90
2017,08,11,03,09,14.90
2017,08,11,03,10,14.90
2017,08,11,03,11,14.80
2017,08,11,03,12,14.80
2017,08,11,03,13,14.80
2017,08,11,03,14,14.80
2017,08,11,03,15,14.80
2017,08,11,03,16,14.80
2017,08,11,03,17,14.80
2017,08,11,03,18,14.80
2017,08,11,03,19,14.80
2017,08,11,03,20,14.70
2017,08,11,03,21,14.70
2017,08,11,03,22,14.70
2017,08,11,03,23,14.70
2017,08,11,03,24,14.70
2017,08,11,03,25,14.70
2017,08,11,03,26,14.60
2017,08,11,03,27,14.60
2017,08,11,03,28,14.60
2017,08,11,03,29,14.60
2017,08,11,03,30,14.70
2017,08,11,03,31,14.70
2017,08,11,03,32,14.70
2017,08,11,03,33,14.70
2017,08,11,03,34,14.80
2017,08,11,03,35,14.80
2017,08,11,03,36,14.80
2017,08,11,03,37,14.90
2017,08,11,03,38,14.90
2017,08,11,03,39,14.90
2017,08,11,03,40,14.90
2017,08,11,03,41,15.00
2017,08,11,03,42,15.00
2017,08,11,03,43,15.00
2017,08,11,03,44,15.10
2017,08,11,03,45,15.10
2017,08,11,03,46,15.10
2017,08,11,03,47,15.20
2017,08,11,03,48,15.20
2017,08,11,03,49,15.20
2017,08,11,03,50,15.20
2017,08,11,03,51,15.20
2017,08,11,03,52,15.20
2017,08,11,03,53,15.20
2017,08,11,03,54,15.20
2017,08,11,03,55,15.20
2017,08,11,03,56,15.30
2017,08,11,03,57,15.30
2017,08,11,03,58,15.30
2017,08,11,03,59,15.30
2017,08,11,04,00,15.30
2017,08,11,04,01,15.30
2017,08,11,04,02,15.30
2017,08,11,04,03,15.30
2017,08,11,04,04,15.20
2017,08,11,04,05,15.20
2017,08,11,04,06,15.10
2017,08,11,04,07,15.10
2017,08,11,04,08,15.10
2017,08,11,04,09,15.00
2017,08,11,04,10,14.90
2017,08,11,04,11,14.90
2017,08,11,04,12,14.90
2017,08,11,04,13,14.80
2017,08,11,04,14,14.80
2017,08,11,04,15,14.80
2017,08,11,04,16,14.80
2017,08,11,04,17,14.80
2017,08,11,04,18,14.80
2017,08,11,04,19,14.80
2017,08,11,04,20,14.70
2017,08,11,04,21,14.70
2017,08,11,04,22,14.70
2017,08,11,04,23,14.70
2017,08,11,04,24,14.60
2017,08,11,04,25,14.60
2017,08,11,04,26,14.60
2017,08,11,04,27,14.60
2017,08,11,04,28,14.60
2017,08,11,04,29,14.60
2017,08,11,04,30,14.50
2017,08,11,04,31,14.50
2017,08,11,04,32,14.50
2017,08,11,04,33,14.50
2017,08,11,04,34,14.50
2017,08,11,04,35,14.40
2017,08,11,04,36,14.40
2017,08,11,04,37,14.40
2017,08,11,04,38,14.40
2017,08,11,04,39,14.40
2017,08,11,04,40,14.30
2017,08,11,04,41,14.30
2017,08,11,04,42,14.30
2017,08,11,04,43,14.30
2017,08,11,04,44,14.20
2017,08,11,04,45,14.20
2017,08,11,04,46,14.20
2017,08,11,04,47,14.20
2017,08,11,04,48,14.20
2017,08,11,04,49,14.20
2017,08,11,04,50,14.20
2017,08,11,04,51,14.20
2017,08,11,04,52,14.20
2017,08,11,04,53,14.10
2017,08,11,04,54,14.10
2017,08,11,04,55,14.10
2017,08,11,04,56,14.10
2017,08,11,04,57,14.10
2017,08,11,04,58,14.10
2017,08,11,04,59,14.00
2017,08,11,05,00,14.00
2017,08,11,05,01,14.00
2017,08,11,05,02,14.00
2017,08,11,05,03,14.00
2017,08,11,05,04,13.90
2017,08,11,05,05,13.90
2017,08,11,05,06,13.90
2017,08,11,05,07,13.90
2017,08,11,05,08,13.90
2017,08,11,05,09,13.90
2017,08,11,05,10,13.90
2017,08,11,05,11,13.80
2017,08,11,05,12,13.80
2017,08,11,05,13,13.80
2017,08,11,05,14,13.80
2017,08,11,05,15,13.80
2017,08,11,05,16,13.80
2017,08,11,05,17,13.80
2017,08,11,05,18,13.80
2017,08,11,05,19,13.80
2017,08,11,05,20,13.80
2017,08,11,05,21,13.90
2017,08,11,05,22,13.90
2017,08,11,05,23,13.90
2017,08,11,05,24,13.90
2017,08,11,05,25,13.80
2017,08,11,05,26,13.90
2017,08,11,05,27,13.80
2017,08,11,05,28,13.80
2017,08,11,05,29,13.80
2017,08,11,05,30,13.80
2017,08,11,05,31,13.80
2017,08,11,05,32,13.80
2017,08,11,05,33,13.80
2017,08,11,05,34,13.80
2017,08,11,05,35,13.80
2017,08,11,05,36,13.80
2017,08,11,05,37,13.80
2017,08,11,05,38,13.70
2017,08,11,05,39,13.70
2017,08,11,05,40,13.70
2017,08,11,05,41,13.70
2017,08,11,05,42,13.70
2017,08,11,05,43,13.70
2017,08,11,05,44,13.70
2017,08,11,05,45,13.70
2017,08,11,05,46,13.70
2017,08,11,05,47,13.80
2017,08,11,05,48,13.80
2017,08,11,05,49,13.80
2017,08,11,05,50,13.80
2017,08,11,05,51,13.80
2017,08,11,05,52,13.80
2017,08,11,05,53,13.80
2017,08,11,05,54,13.80
2017,08,11,05,55,13.80
2017,08,11,05,56,13.80
2017,08,11,05,57,13.80
2017,08,11,05,58,13.80
2017,08,11,05,59,13.80
2017,08,11,06,00,13.80
2017,08,11,06,01,13.70
2017,08,11,06,02,13.70
2017,08,11,06,03,13.70
2017,08,11,06,04,13.70
2017,08,11,06,05,13.70
2017,08,11,06,06,13.70
2017,08,11,06,07,13.70
2017,08,11,06,08,13.70
2017,08,11,06,09,13.70
2017,08,11,06,10,13.70
2017,08,11,06,11,13.70
2017,08,11,06,12,13.70
2017,08,11,06,13,13.70
2017,08,11,06,14,13.70
2017,08,11,06,15,13.70
2017,08,11,06,16,13.70
2017,08,11,06,17,13.70
2017,08,11,06,18,13.70
2017,08,11,06,19,13.70
2017,08,11,06,20,13.70
2017,08,11,06,21,13.70
2017,08,11,06,22,13.70
2017,08,11,06,23,13.70
2017,08,11,06,24,13.70
2017,08,11,06,25,13.70
2017,08,11,06,26,13.70
2017,08,11,06,27,13.70
2017,08,11,06,28,13.70
2017,08,11,06,29,13.70
2017,08,11,06,30,13.80
2017,08,11,06,31,13.70
2017,08,11,06,32,13.70
2017,08,11,06,33,13.70
2017,08,11,06,34,13.70
2017,08,11,06,35,13.70
2017,08,11,06,36,13.70
2017,08,11,06,37,13.70
2017,08,11,06,38,13.60
2017,08,11,06,39,13.60
2017,08,11,06,40,13.60
2017,08,11,06,41,13.60
2017,08,11,06,42,13.60
2017,08,11,06,43,13.60
2017,08,11,06,44,13.60
2017,08,11,06,45,13.60
2017,08,11,06,46,13.60
2017,08,11,06,47,13.60
2017,08,11,06,48,13.60
2017,08,11,06,49,13.60
2017,08,11,06,50,13.60
2017,08,11,06,51,13.60
2017,08,11,06,52,13.60
2017,08,11,06,53,13.60
2017,08,11,06,54,13.60
2017,08,11,06,55,13.60
2017,08,11,06,56,13.60
2017,08,11,06,57,13.60
2017,08,11,06,58,13.60
2017,08,11,06,59,13.60
2017,08,11,07,00,13.60
2017,08,11,07,01,13.60
2017,08,11,07,02,13.60
2017,08,11,07,03,13.60
2017,08,11,07,04,13.60
2017,08,11,07,05,13.60
2017,08,11,07,06,13.60
2017,08,11,07,07,13.60
2017,08,11,07,08,13.60
2017,08,11,07,09,13.60
2017,08,11,07,10,13.60
2017,08,11,07,11,13.60
2017,08,11,07,12,13.60
2017,08,11,07,13,13.60
2017,08,11,07,14,13.60
2017,08,11,07,15,13.70
2017,08,11,07,16,13.70
2017,08,11,07,17,13.70
2017,08,11,07,18,13.70
2017,08,11,07,19,13.70
2017,08,11,07,20,13.70
2017,08,11,07,21,13.70
2017,08,11,07,22,13.70
2017,08,11,07,23,13.70
2017,08,11,07,24,13.70
2017,08,11,07,25,13.80
2017,08,11,07,26,13.80
2017,08,11,07,27,13.80
2017,08,11,07,28,13.80
2017,08,11,07,29,13.80
2017,08,11,07,30,13.80
2017,08,11,07,31,13.80
2017,08,11,07,32,13.90
2017,08,11,07,33,13.90
2017,08,11,07,34,13.90
2017,08,11,07,35,13.90
2017,08,11,07,36,13.90
2017,08,11,07,37,13.90
2017,08,11,07,38,14.00
2017,08,11,07,39,14.00
2017,08,11,07,40,14.00
2017,08,11,07,41,14.10
2017,08,11,07,42,14.10
2017,08,11,07,43,14.10
2017,08,11,07,44,14.20
2017,08,11,07,45,14.20
2017,08,11,07,46,14.20
2017,08,11,07,47,14.20
2017,08,11,07,48,14.30
2017,08,11,07,49,14.30
2017,08,11,07,50,14.30
2017,08,11,07,51,14.30
2017,08,11,07,52,14.30
2017,08,11,07,53,14.40
2017,08,11,07,54,14.40
2017,08,11,07,55,14.40
2017,08,11,07,56,14.40
2017,08,11,07,57,14.50
2017,08,11,07,58,14.50
2017,08,11,07,59,14.50
2017,08,11,08,00,14.60
2017,08,11,08,01,14.60
2017,08,11,08,02,14.60
2017,08,11,08,03,14.60
2017,08,11,08,04,14.70
2017,08,11,08,05,14.70
2017,08,11,08,06,14.70
2017,08,11,08,07,14.70
2017,08,11,08,08,14.80
2017,08,11,08,09,14.80
2017,08,11,08,10,14.80
2017,08,11,08,11,14.90
2017,08,11,08,12,14.90
2017,08,11,08,13,15.00
2017,08,11,08,14,15.00
2017,08,11,08,15,15.10
2017,08,11,08,16,15.10
2017,08,11,08,17,15.10
2017,08,11,08,18,15.10
2017,08,11,08,19,15.20
2017,08,11,08,20,15.20
2017,08,11,08,21,15.30
2017,08,11,08,22,15.30
2017,08,11,08,23,15.30
2017,08,11,08,24,15.40
2017,08,11,08,25,15.40
2017,08,11,08,26,15.50
2017,08,11,08,27,15.50
2017,08,11,08,28,15.60
2017,08,11,08,29,15.60
2017,08,11,08,30,15.70
2017,08,11,08,31,15.70
2017,08,11,08,32,15.70
2017,08,11,08,33,15.70
2017,08,11,08,34,15.80
2017,08,11,08,35,15.80
2017,08,11,08,36,15.80
2017,08,11,08,37,15.80
2017,08,11,08,38,15.80
2017,08,11,08,39,15.80
2017,08,11,08,40,15.80
2017,08,11,08,41,15.90
2017,08,11,08,42,15.90
2017,08,11,08,43,15.90
2017,08,11,08,44,16.00
2017,08,11,08,45,16.00
2017,08,11,08,46,16.00
2017,08,11,08,47,16.10
2017,08,11,08,48,16.10
2017,08,11,08,49,16.10
2017,08,11,08,50,16.20
2017,08,11,08,51,16.20
2017,08,11,08,52,16.20
2017,08,11,08,53,16.20
2017,08,11,08,54,16.30
2017,08,11,08,55,16.30
2017,08,11,08,56,16.30
2017,08,11,08,57,16.30
2017,08,11,08,58,16.40
2017,08,11,08,59,16.40
2017,08,11,09,00,16.40
2017,08,11,09,01,16.50
2017,08,11,09,02,16.50
2017,08,11,09,03,16.60
2017,08,11,09,04,16.60
2017,08,11,09,05,16.70
2017,08,11,09,06,16.70
2017,08,11,09,07,16.80
2017,08,11,09,08,16.80
2017,08,11,09,09,16.80
2017,08,11,09,10,16.90
2017,08,11,09,11,17.00
2017,08,11,09,12,17.00
2017,08,11,09,13,17.00
2017,08,11,09,14,17.10
2017,08,11,09,15,17.10
2017,08,11,09,16,17.20
2017,08,11,09,17,17.20
2017,08,11,09,18,17.30
2017,08,11,09,19,17.30
2017,08,11,09,20,17.30
2017,08,11,09,21,17.30
2017,08,11,09,22,17.40
2017,08,11,09,23,17.40
2017,08,11,09,24,17.50
2017,08,11,09,25,17.50
2017,08,11,09,26,17.60
2017,08,11,09,27,17.60
2017,08,11,09,28,17.70
2017,08,11,09,29,17.70
2017,08,11,09,30,17.80
2017,08,11,09,31,17.80
2017,08,11,09,32,17.90
2017,08,11,09,33,17.90
2017,08,11,09,34,18.00
2017,08,11,09,35,18.00
2017,08,11,09,36,18.10
2017,08,11,09,37,18.10
2017,08,11,09,38,18.20
2017,08,11,09,39,18.30
2017,08,11,09,40,18.30
2017,08,11,09,41,18.40
2017,08,11,09,42,18.50
2017,08,11,09,43,18.60
2017,08,11,09,44,18.60
2017,08,11,09,45,18.70
2017,08,11,09,46,18.80
2017,08,11,09,47,18.90
2017,08,11,09,48,18.90
2017,08,11,09,49,19.00
2017,08,11,09,50,19.10
2017,08,11,09,51,19.20
2017,08,11,09,52,19.30
2017,08,11,09,53,19.40
2017,08,11,09,54,19.50
2017,08,11,09,55,19.70
2017,08,11,09,56,19.80
2017,08,11,09,57,19.90
2017,08,11,09,58,20.00
2017,08,11,09,59,20.00
2017,08,11,10,00,20.10
2017,08,11,10,01,20.20
2017,08,11,10,02,20.30
2017,08,11,10,03,20.40
2017,08,11,10,04,20.50
2017,08,11,10,05,20.60
2017,08,11,10,06,20.70
2017,08,11,10,07,20.70
2017,08,11,10,08,20.80
2017,08,11,10,09,20.80
2017,08,11,10,10,20.90
2017,08,11,10,11,20.90
2017,08,11,10,12,20.90
2017,08,11,10,13,20.90
2017,08,11,10,14,20.90
2017,08,11,10,15,20.90
2017,08,11,10,16,20.90
2017,08,11,10,17,21.00
2017,08,11,10,18,21.10
2017,08,11,10,19,21.10
2017,08,11,10,20,21.20
2017,08,11,10,21,21.20
2017,08,11,10,22,21.20
2017,08,11,10,23,21.20
2017,08,11,10,24,21.30
2017,08,11,10,25,21.30
2017,08,11,10,26,21.40
2017,08,11,10,27,21.40
2017,08,11,10,28,21.50
2017,08,11,10,29,21.50
2017,08,11,10,30,21.50
2017,08,11,10,31,21.60
2017,08,11,10,32,21.60
2017,08,11,10,33,21.60
2017,08,11,10,34,21.60
2017,08,11,10,35,21.70
2017,08,11,10,36,21.70
2017,08,11,10,37,21.80
2017,08,11,10,38,21.80
2017,08,11,10,39,21.80
2017,08,11,10,40,21.90
2017,08,11,10,41,21.90
2017,08,11,10,42,21.90
2017,08,11,10,43,21.90
2017,08,11,10,44,22.00
2017,08,11,10,45,22.10
2017,08,11,10,46,22.10
2017,08,11,10,47,22.20
2017,08,11,10,48,22.30
2017,08,11,10,49,22.30
2017,08,11,10,50,22.30
2017,08,11,10,51,22.30
2017,08,11,10,52,22.40
2017,08,11,10,53,22.40
2017,08,11,10,54,22.40
2017,08,11,10,55,22.50
2017,08,11,10,56,22.50
2017,08,11,10,57,22.60
2017,08,11,10,58,22.70
2017,08,11,10,59,22.90
2017,08,11,11,00,23.00
2017,08,11,11,01,23.10
2017,08,11,11,02,23.20
2017,08,11,11,03,23.20
2017,08,11,11,04,23.30
2017,08,11,11,05,23.30
2017,08,11,11,06,23.30
2017,08,11,11,07,23.30
2017,08,11,11,08,23.30
2017,08,11,11,09,23.30
2017,08,11,11,10,23.30
2017,08,11,11,11,23.20
2017,08,11,11,12,23.20
2017,08,11,11,13,23.10
2017,08,11,11,14,22.90
2017,08,11,11,15,22.90
2017,08,11,11,16,22.90
2017,08,11,11,17,22.80
2017,08,11,11,18,22.80
2017,08,11,11,19,22.80
2017,08,11,11,20,22.80
2017,08,11,11,21,22.80
2017,08,11,11,22,22.90
2017,08,11,11,23,22.90
2017,08,11,11,24,22.90
2017,08,11,11,25,22.90
2017,08,11,11,26,22.80
2017,08,11,11,27,22.70
2017,08,11,11,28,22.60
2017,08,11,11,29,22.60
2017,08,11,11,30,22.60
2017,08,11,11,31,22.60
2017,08,11,11,32,22.60
2017,08,11,11,33,22.60
2017,08,11,11,34,22.70
2017,08,11,11,35,22.80
2017,08,11,11,36,22.90
2017,08,11,11,37,22.90
2017,08,11,11,38,23.00
2017,08,11,11,39,23.00
2017,08,11,11,40,23.10
2017,08,11,11,41,23.10
2017,08,11,11,42,23.20
2017,08,11,11,43,23.20
2017,08,11,11,44,23.20
2017,08,11,11,45,23.20
2017,08,11,11,46,23.30
2017,08,11,11,47,23.30
2017,08,11,11,48,23.30
2017,08,11,11,49,23.30
2017,08,11,11,50,23.20
2017,08,11,11,51,23.20
2017,08,11,11,52,23.20
2017,08,11,11,53,23.20
2017,08,11,11,54,23.20
2017,08,11,11,55,23.20
2017,08,11,11,56,23.20
2017,08,11,11,57,23.30
2017,08,11,11,58,23.30
2017,08,11,11,59,23.30
2017,08,11,12,00,23.30
2017,08,11,12,01,23.30
2017,08,11,12,02,23.40
2017,08,11,12,03,23.50
2017,08,11,12,04,23.60
2017,08,11,12,05,23.60
2017,08,11,12,06,23.70
2017,08,11,12,07,23.70
2017,08,11,12,08,23.80
2017,08,11,12,09,23.80
2017,08,11,12,10,23.70
2017,08,11,12,11,23.60
2017,08,11,12,12,23.60
2017,08,11,12,13,23.50
2017,08,11,12,14,23.50
2017,08,11,12,15,23.50
2017,08,11,12,16,23.40
2017,08,11,12,17,23.40
2017,08,11,12,18,23.30
2017,08,11,12,19,23.30
2017,08,11,12,20,23.20
2017,08,11,12,21,23.20
2017,08,11,12,22,23.10
2017,08,11,12,23,22.90
2017,08,11,12,24,22.90
2017,08,11,12,25,22.90
2017,08,11,12,26,22.80
2017,08,11,12,27,22.90
2017,08,11,12,28,22.90
2017,08,11,12,29,22.90
2017,08,11,12,30,23.00
2017,08,11,12,31,22.90
2017,08,11,12,32,22.90
2017,08,11,12,33,22.90
2017,08,11,12,34,22.80
2017,08,11,12,35,22.70
2017,08,11,12,36,22.70
2017,08,11,12,37,22.70
2017,08,11,12,38,22.60
2017,08,11,12,39,22.60
2017,08,11,12,40,22.50
2017,08,11,12,41,22.50
2017,08,11,12,42,22.40
2017,08,11,12,43,22.40
2017,08,11,12,44,22.30
2017,08,11,12,45,22.30
2017,08,11,12,46,22.30
2017,08,11,12,47,22.40
2017,08,11,12,48,22.40
2017,08,11,12,49,22.40
2017,08,11,12,50,22.40
2017,08,11,12,51,22.40
2017,08,11,12,52,22.40
2017,08,11,12,53,22.40
2017,08,11,12,54,22.50
2017,08,11,12,55,22.50
2017,08,11,12,56,22.60
2017,08,11,12,57,22.70
2017,08,11,12,58,22.90
2017,08,11,12,59,22.90
2017,08,11,13,00,22.90
2017,08,11,13,01,22.90
2017,08,11,13,02,22.90
2017,08,11,13,03,23.00
2017,08,11,13,04,23.20
2017,08,11,13,05,23.30
2017,08,11,13,06,23.40
2017,08,11,13,07,23.50
2017,08,11,13,08,23.60
2017,08,11,13,09,23.60
2017,08,11,13,10,23.60
2017,08,11,13,11,23.60
2017,08,11,13,12,23.60
2017,08,11,13,13,23.60
2017,08,11,13,14,23.50
2017,08,11,13,15,23.50
2017,08,11,13,16,23.60
2017,08,11,13,17,23.70
2017,08,11,13,18,23.80
2017,08,11,13,19,23.80
2017,08,11,13,20,23.90
2017,08,11,13,21,23.90
2017,08,11,13,22,24.10
2017,08,11,13,23,24.20
2017,08,11,13,24,24.30
2017,08,11,13,25,24.40
2017,08,11,13,26,24.40
2017,08,11,13,27,24.40
2017,08,11,13,28,24.40
2017,08,11,13,29,24.30
2017,08,11,13,30,24.10
2017,08,11,13,31,24.00
2017,08,11,13,32,23.90
2017,08,11,13,33,23.90
2017,08,11,13,34,23.80
2017,08,11,13,35,23.80
2017,08,11,13,36,23.80
2017,08,11,13,37,23.70
2017,08,11,13,38,23.60
2017,08,11,13,39,23.50
2017,08,11,13,40,23.40
2017,08,11,13,41,23.40
2017,08,11,13,42,23.40
2017,08,11,13,43,23.40
2017,08,11,13,44,23.50
2017,08,11,13,45,23.60
2017,08,11,13,46,23.60
2017,08,11,13,47,23.70
2017,08,11,13,48,23.80
2017,08,11,13,49,23.90
2017,08,11,13,50,23.90
2017,08,11,13,51,24.00
2017,08,11,13,52,24.10
2017,08,11,13,53,24.20
2017,08,11,13,54,24.30
2017,08,11,13,55,24.40
2017,08,11,13,56,24.60
2017,08,11,13,57,24.70
2017,08,11,13,58,24.90
2017,08,11,13,59,25.00
2017,08,11,14,00,25.10
2017,08,11,14,01,25.20
2017,08,11,14,02,25.30
2017,08,11,14,03,25.50
2017,08,11,14,04,25.70
2017,08,11,14,05,25.90
2017,08,11,14,06,26.00
2017,08,11,14,07,26.20
2017,08,11,14,08,26.30
2017,08,11,14,09,26.30
2017,08,11,14,10,26.50
2017,08,11,14,11,26.60
2017,08,11,14,12,26.70
2017,08,11,14,13,26.80
2017,08,11,14,14,26.80
2017,08,11,14,15,26.80
2017,08,11,14,16,26.70
2017,08,11,14,17,26.70
2017,08,11,14,18,26.60
2017,08,11,14,19,26.40
2017,08,11,14,20,26.30
2017,08,11,14,21,26.20
2017,08,11,14,22,26.10
2017,08,11,14,23,25.90
2017,08,11,14,24,25.80
2017,08,11,14,25,25.80
2017,08,11,14,26,25.70
2017,08,11,14,27,25.50
2017,08,11,14,28,25.40
2017,08,11,14,29,25.20
2017,08,11,14,30,25.00
2017,08,11,14,31,24.80
2017,08,11,14,32,24.70
2017,08,11,14,33,24.60
2017,08,11,14,34,24.60
2017,08,11,14,35,24.60
2017,08,11,14,36,24.70
2017,08,11,14,37,24.70
2017,08,11,14,38,24.70
2017,08,11,14,39,24.80
2017,08,11,14,40,24.80
2017,08,11,14,41,24.80
2017,08,11,14,42,24.80
2017,08,11,14,43,24.70
2017,08,11,14,44,24.60
2017,08,11,14,45,24.50
2017,08,11,14,46,24.40
2017,08,11,14,47,24.30
2017,08,11,14,48,24.30
2017,08,11,14,49,24.30
2017,08,11,14,50,24.40
2017,08,11,14,51,24.40
2017,08,11,14,52,24.50
2017,08,11,14,53,24.40
2017,08,11,14,54,24.40
2017,08,11,14,55,24.30
2017,08,11,14,56,24.20
2017,08,11,14,57,24.20
2017,08,11,14,58,24.20
2017,08,11,14,59,24.20
2017,08,11,15,00,24.20
2017,08,11,15,01,24.20
2017,08,11,15,02,24.10
2017,08,11,15,03,24.00
2017,08,11,15,04,24.00
2017,08,11,15,05,23.90
2017,08,11,15,06,23.90
2017,08,11,15,07,23.90
2017,08,11,15,08,23.80
2017,08,11,15,09,23.80
2017,08,11,15,10,23.90
2017,08,11,15,11,23.90
2017,08,11,15,12,23.90
2017,08,11,15,13,24.00
2017,08,11,15,14,24.10
2017,08,11,15,15,24.20
2017,08,11,15,16,24.30
2017,08,11,15,17,24.50
2017,08,11,15,18,24.60
2017,08,11,15,19,24.70
2017,08,11,15,20,24.90
2017,08,11,15,21,25.00
2017,08,11,15,22,25.20
2017,08,11,15,23,25.30
2017,08,11,15,24,25.40
2017,08,11,15,25,25.40
2017,08,11,15,26,25.50
2017,08,11,15,27,25.50
2017,08,11,15,28,25.60
2017,08,11,15,29,25.70
2017,08,11,15,30,25.70
2017,08,11,15,31,25.70
2017,08,11,15,32,25.70
2017,08,11,15,33,25.60
2017,08,11,15,34,25.50
2017,08,11,15,35,25.40
2017,08,11,15,36,25.40
2017,08,11,15,37,25.40
2017,08,11,15,38,25.40
2017,08,11,15,39,25.40
2017,08,11,15,40,25.30
2017,08,11,15,41,25.30
2017,08,11,15,42,25.30
2017,08,11,15,43,25.30
2017,08,11,15,44,25.20
2017,08,11,15,45,25.20
2017,08,11,15,46,25.30
2017,08,11,15,47,25.30
2017,08,11,15,48,25.30
2017,08,11,15,49,25.30
2017,08,11,15,50,25.30
2017,08,11,15,51,25.40
2017,08,11,15,52,25.50
2017,08,11,15,53,25.60
2017,08,11,15,54,25.70
2017,08,11,15,55,25.80
2017,08,11,15,56,25.90
2017,08,11,15,57,26.00
2017,08,11,15,58,26.10
2017,08,11,15,59,26.20
2017,08,11,16,00,26.20
2017,08,11,16,01,26.10
2017,08,11,16,02,26.10
2017,08,11,16,03,26.00
2017,08,11,16,04,25.90
2017,08,11,16,05,25.90
2017,08,11,16,06,25.80
2017,08,11,16,07,25.80
2017,08,11,16,08,25.80
2017,08,11,16,09,25.90
2017,08,11,16,10,26.00
2017,08,11,16,11,26.10
2017,08,11,16,12,26.20
2017,08,11,16,13,26.30
2017,08,11,16,14,26.30
2017,08,11,16,15,26.40
2017,08,11,16,16,26.40
2017,08,11,16,17,26.30
2017,08,11,16,18,26.20
2017,08,11,16,19,26.10
2017,08,11,16,20,26.10
2017,08,11,16,21,26.10
2017,08,11,16,22,26.20
2017,08,11,16,23,26.20
2017,08,11,16,24,26.30
2017,08,11,16,25,26.20
2017,08,11,16,26,26.20
2017,08,11,16,27,26.10
2017,08,11,16,28,26.10
2017,08,11,16,29,26.10
2017,08,11,16,30,26.10
2017,08,11,16,31,26.20
2017,08,11,16,32,26.20
2017,08,11,16,33,26.30
2017,08,11,16,34,26.30
2017,08,11,16,35,26.30
2017,08,11,16,36,26.30
2017,08,11,16,37,26.30
2017,08,11,16,38,26.30
2017,08,11,16,39,26.20
2017,08,11,16,40,26.10
2017,08,11,16,41,26.00
2017,08,11,16,42,25.90
2017,08,11,16,43,25.70
2017,08,11,16,44,25.60
2017,08,11,16,45,25.40
2017,08,11,16,46,25.30
2017,08,11,16,47,25.30
2017,08,11,16,48,25.30
2017,08,11,16,49,25.30
2017,08,11,16,50,25.30
2017,08,11,16,51,25.30
2017,08,11,16,52,25.20
2017,08,11,16,53,25.20
2017,08,11,16,54,25.30
2017,08,11,16,55,25.30
2017,08,11,16,56,25.40
2017,08,11,16,57,25.50
2017,08,11,16,58,25.60
2017,08,11,16,59,25.60
2017,08,11,17,00,25.70
2017,08,11,17,01,25.70
2017,08,11,17,02,25.70
2017,08,11,17,03,25.60
2017,08,11,17,04,25.50
2017,08,11,17,05,25.40
2017,08,11,17,06,25.20
2017,08,11,17,07,25.10
2017,08,11,17,08,24.90
2017,08,11,17,09,24.80
2017,08,11,17,10,24.80
2017,08,11,17,11,24.80
2017,08,11,17,12,24.80
2017,08,11,17,13,24.80
2017,08,11,17,14,24.80
2017,08,11,17,15,24.80
2017,08,11,17,16,24.80
2017,08,11,17,17,24.90
2017,08,11,17,18,24.90
2017,08,11,17,19,24.90